Вернуться в каталог

OBJECT J

АктивенSSO
NORAD 100137·UNKNOWN·🇨🇳 China

Запущен Jul 22, 2026 с Yellow Sea Launch Area

Loading…

Ближайшие Пролёты (ближайшие 24 часа)

TLE

СвежийSource: Space-Track

Эпоха: Sep 14, 2026, 04:07 UTC

1 A0137U 26168J   26257.17162551  .00005740  00000-0  35302-3 0  9996
2 A0137  97.5365 338.0310 0021550 148.2742 211.9791 15.10233380  8146

Отслеживайте OBJECT J в реальном времени с AllMySat

Download on the App Store